Location: A�t Bou Chrif
(32.7193°N, 5.2385°W)
Time: 03:12:40
(UTC+00:00)

GP-B - Pass Details

Date: 08 August 2020
Orbit: 632 x 635 km, 89.8° (Epoch: 20 September)

Event Time Altitude Azimuth Distance (km) Brightness Sun altitude
Rises 21:25:07 0° 4° (N) 2,934 7.0 -24.9°
Reaches altitude 10° 21:27:21 10° 7° (N) 2,022 6.1 -25.3°
Enters shadow 21:30:44 50° 23° (NNE) 806 3.6 -25.8°
